| time (UTC) | temp F | wind direction | speed knots | gust knots | rain 1hr in | rain 24hr in | rain mn in | humidity % | barometer mb |
| 20260508115328 | 47 | 173 | 0.0 | 3.5 | 0.00 | 0.00 | 0.00 | 72 | 1013.9 |
| 20260508114813 | 46 | 138 | 0.0 | 2.6 | 0.00 | 0.00 | 0.00 | 72 | 1013.9 |
| 20260508114320 | 46 | 259 | 0.9 | 2.6 | 0.00 | 0.00 | 0.00 | 72 | 1013.7 |
| 20260508113826 | 46 | 125 | 0.0 | 5.2 | 0.00 | 0.00 | 0.00 | 72 | 1013.7 |
| 20260508113314 | 46 | 165 | 0.0 | 5.2 | 0.00 | 0.00 | 0.00 | 73 | 1013.7 |
| 20260508112838 | 46 | 63 | 0.0 | 1.7 | 0.00 | 0.00 | 0.00 | 73 | 1013.5 |
| 20260508112322 | 45 | 156 | 0.0 | 3.5 | 0.00 | 0.00 | 0.00 | 75 | 1013.5 |
| 20260508111814 | 45 | 176 | 0.0 | 3.5 | 0.00 | 0.00 | 0.00 | 75 | 1013.5 |
| 20260508111338 | 45 | 116 | 0.0 | 1.7 | 0.00 | 0.00 | 0.00 | 76 | 1013.4 |
| 20260508110823 | 45 | 115 | 0.0 | 1.7 | 0.00 | 0.00 | 0.00 | 76 | 1013.4 |
| 20260508110329 | 45 | 116 | 0.0 | 1.7 | 0.00 | 0.00 | 0.00 | 77 | 1013.4 |
| 20260508105830 | 45 | 158 | 0.0 | 0.0 | 0.00 | 0.00 | 0.00 | 78 | 1013.3 |
| 20260508105317 | 44 | 158 | 0.0 | 1.7 | 0.00 | 0.00 | 0.00 | 78 | 1013.3 |
| 20260508104823 | 44 | 158 | 0.0 | 1.7 | 0.00 | 0.00 | 0.00 | 80 | 1013.3 |
| 20260508104324 | 44 | 159 | 0.0 | 1.7 | 0.00 | 0.00 | 0.00 | 80 | 1013.2 |
| 20260508103853 | 43 | 51 | 0.0 | 0.0 | 0.00 | 0.00 | 0.00 | 82 | 1013.2 |
| 20260508103316 | 43 | 51 | 0.0 | 0.0 | 0.00 | 0.00 | 0.00 | 84 | 1013.2 |
| 20260508102818 | 43 | 51 | 0.0 | 0.0 | 0.00 | 0.00 | 0.00 | 86 | 1013.1 |
| 20260508102328 | 43 | 51 | 0.0 | 0.0 | 0.00 | 0.00 | 0.00 | 84 | 1013.1 |
| 20260508101816 | 43 | 51 | 0.0 | 0.0 | 0.00 | 0.00 | 0.00 | 84 | 1013.1 |
| 20260508101321 | 43 | 51 | 0.0 | 0.0 | 0.00 | 0.00 | 0.00 | 82 | 1013.2 |
| 20260508100845 | 43 | 51 | 0.0 | 0.0 | 0.00 | 0.00 | 0.00 | 82 | 1013.2 |
| 20260508100336 | 43 | 51 | 0.0 | 0.0 | 0.00 | 0.00 | 0.00 | 82 | 1013.2 |
| 20260508095822 | 43 | 51 | 0.0 | 0.0 | 0.00 | 0.00 | 0.00 | 80 | 1013.1 |
| 20260508095328 | 43 | 51 | 0.0 | 0.0 | 0.00 | 0.00 | 0.00 | 81 | 1013.1 |
| 20260508094853 | 44 | 51 | 0.0 | 0.0 | 0.00 | 0.00 | 0.00 | 81 | 1013.1 |
| 20260508094335 | 44 | 51 | 0.0 | 0.0 | 0.00 | 0.00 | 0.00 | 81 | 1013.1 |
| 20260508093820 | 44 | 51 | 0.0 | 0.0 | 0.00 | 0.00 | 0.00 | 79 | 1013.1 |
| 20260508093346 | 44 | 51 | 0.0 | 0.0 | 0.00 | 0.00 | 0.00 | 81 | 1013.1 |
| 20260508092828 | 44 | 51 | 0.0 | 0.0 | 0.00 | 0.00 | 0.00 | 81 | 1013.3 |
| 20260508092318 | 44 | 51 | 0.0 | 0.0 | 0.00 | 0.00 | 0.00 | 80 | 1013.3 |
| 20260508091833 | 44 | 53 | 0.0 | 0.0 | 0.00 | 0.00 | 0.00 | 80 | 1013.3 |
| 20260508091318 | 44 | 53 | 0.0 | 0.0 | 0.00 | 0.00 | 0.00 | 81 | 1013.2 |
| 20260508090842 | 44 | 53 | 0.0 | 0.0 | 0.00 | 0.00 | 0.00 | 80 | 1013.2 |
| 20260508090330 | 44 | 53 | 0.0 | 0.0 | 0.00 | 0.00 | 0.00 | 80 | 1013.2 |
| 20260508085836 | 44 | 53 | 0.0 | 0.0 | 0.00 | 0.00 | 0.00 | 80 | 1013.1 |
| 20260508085342 | 44 | 53 | 0.0 | 0.0 | 0.00 | 0.00 | 0.00 | 80 | 1013.1 |
| 20260508084827 | 44 | 53 | 0.0 | 0.0 | 0.00 | 0.00 | 0.00 | 79 | 1013.1 |
| 20260508084351 | 44 | 53 | 0.0 | 0.0 | 0.00 | 0.00 | 0.00 | 79 | 1013.1 |
| 20260508083858 | 45 | 53 | 0.0 | 0.0 | 0.00 | 0.00 | 0.00 | 80 | 1013.1 |
| 20260508083319 | 45 | 53 | 0.0 | 0.0 | 0.00 | 0.00 | 0.00 | 78 | 1013.1 |
| 20260508082822 | 45 | 53 | 0.0 | 0.0 | 0.00 | 0.00 | 0.00 | 76 | 1013.2 |
| 20260508082327 | 45 | 53 | 0.0 | 0.0 | 0.00 | 0.00 | 0.00 | 75 | 1013.2 |
| 20260508081814 | 46 | 53 | 0.0 | 0.0 | 0.00 | 0.00 | 0.00 | 76 | 1013.2 |
| 20260508081322 | 46 | 53 | 0.0 | 0.0 | 0.00 | 0.00 | 0.00 | 76 | 1013.3 |
| 20260508080847 | 46 | 53 | 0.0 | 0.0 | 0.00 | 0.00 | 0.00 | 74 | 1013.3 |
| 20260508080312 | 47 | 53 | 0.0 | 0.0 | 0.00 | 0.00 | 0.00 | 74 | 1013.3 |
| 20260508075818 | 47 | 53 | 0.0 | 0.0 | 0.00 | 0.00 | 0.00 | 72 | 1013.4 |
| 20260508075323 | 47 | 53 | 0.0 | 0.0 | 0.00 | 0.00 | 0.00 | 72 | 1013.4 |
| 20260508074829 | 48 | 53 | 0.0 | 0.0 | 0.00 | 0.00 | 0.00 | 71 | 1013.4 |
| 20260508074350 | 48 | 53 | 0.0 | 0.0 | 0.00 | 0.00 | 0.00 | 70 | 1013.4 |
| 20260508073853 | 48 | 53 | 0.0 | 0.0 | 0.00 | 0.00 | 0.00 | 71 | 1013.4 |
| 20260508073319 | 48 | 53 | 0.0 | 0.0 | 0.00 | 0.00 | 0.00 | 71 | 1013.4 |
| 20260508072821 | 48 | 53 | 0.0 | 0.0 | 0.00 | 0.00 | 0.00 | 71 | 1013.9 |
| 20260508072350 | 48 | 53 | 0.0 | 0.0 | 0.00 | 0.00 | 0.00 | 69 | 1013.9 |
| 20260508071819 | 48 | 53 | 0.0 | 0.0 | 0.00 | 0.00 | 0.00 | 70 | 1013.9 |
| 20260508071347 | 47 | 53 | 0.0 | 0.0 | 0.00 | 0.00 | 0.00 | 71 | 1013.8 |
| 20260508070851 | 47 | 53 | 0.0 | 0.0 | 0.00 | 0.00 | 0.00 | 69 | 1013.8 |
| 20260508070315 | 47 | 53 | 0.0 | 0.0 | 0.00 | 0.00 | 0.00 | 75 | 1013.8 |
| 20260508065824 | 47 | 53 | 0.0 | 0.0 | 0.00 | 0.00 | 0.00 | 73 | 1014.0 |
| 20260508065332 | 47 | 53 | 0.0 | 0.0 | 0.00 | 0.00 | 0.00 | 74 | 1014.0 |
| 20260508064817 | 48 | 53 | 0.0 | 0.0 | 0.00 | 0.00 | 0.00 | 73 | 1014.0 |
| 20260508064321 | 48 | 53 | 0.0 | 0.0 | 0.00 | 0.00 | 0.00 | 72 | 1014.0 |
| 20260508063829 | 48 | 53 | 0.0 | 0.0 | 0.00 | 0.00 | 0.00 | 74 | 1014.0 |
| 20260508063334 | 48 | 53 | 0.0 | 0.0 | 0.00 | 0.00 | 0.00 | 71 | 1014.0 |
| 20260508062856 | 47 | 53 | 0.0 | 0.0 | 0.00 | 0.00 | 0.00 | 72 | 1014.0 |
| 20260508062320 | 47 | 53 | 0.0 | 0.0 | 0.00 | 0.00 | 0.00 | 74 | 1014.0 |
| 20260508061825 | 47 | 53 | 0.0 | 0.0 | 0.00 | 0.00 | 0.00 | 77 | 1014.0 |
| 20260508061331 | 47 | 53 | 0.0 | 0.0 | 0.00 | 0.00 | 0.00 | 73 | 1013.4 |
| 20260508060839 | 47 | 53 | 0.0 | 0.0 | 0.00 | 0.00 | 0.00 | 72 | 1013.4 |
| 20260508060329 | 47 | 53 | 0.0 | 0.0 | 0.00 | 0.00 | 0.00 | 76 | 1013.4 |
| 20260508055835 | 46 | 53 | 0.0 | 0.0 | 0.00 | 0.00 | 0.00 | 74 | 1013.6 |
| 20260508055321 | 46 | 53 | 0.0 | 0.0 | 0.00 | 0.00 | 0.00 | 76 | 1013.6 |
| 20260508054825 | 46 | 53 | 0.0 | 0.0 | 0.00 | 0.00 | 0.00 | 74 | 1013.6 |
| 20260508054329 | 46 | 53 | 0.0 | 0.9 | 0.00 | 0.00 | 0.00 | 80 | 1013.6 |
| 20260508053834 | 46 | 53 | 0.0 | 0.9 | 0.00 | 0.00 | 0.00 | 79 | 1013.6 |
| 20260508053318 | 45 | 53 | 0.0 | 0.0 | 0.00 | 0.00 | 0.00 | 78 | 1013.6 |
| 20260508052822 | 45 | 53 | 0.0 | 0.0 | 0.00 | 0.00 | 0.00 | 80 | 1013.6 |
| 20260508052327 | 45 | 53 | 0.0 | 0.0 | 0.00 | 0.00 | 0.00 | 78 | 1013.6 |
| 20260508051832 | 45 | 53 | 0.0 | 0.0 | 0.00 | 0.00 | 0.00 | 79 | 1013.6 |
| 20260508051336 | 45 | 53 | 0.0 | 0.0 | 0.00 | 0.00 | 0.00 | 79 | 1013.8 |
| 20260508050316 | 45 | 53 | 0.0 | 0.0 | 0.00 | 0.00 | 0.00 | 82 | 1013.8 |
| 20260508045819 | 44 | 53 | 0.0 | 0.0 | 0.00 | 0.00 | 0.00 | 83 | 1014.0 |
| 20260508045325 | 44 | 53 | 0.0 | 0.0 | 0.00 | 0.00 | 0.00 | 81 | 1014.0 |
| 20260508044830 | 44 | 53 | 0.0 | 0.0 | 0.00 | 0.00 | 0.00 | 81 | 1014.0 |
| 20260508044336 | 44 | 53 | 0.0 | 0.0 | 0.00 | 0.00 | 0.00 | 80 | 1014.0 |
| 20260508043821 | 44 | 53 | 0.0 | 0.0 | 0.00 | 0.00 | 0.00 | 80 | 1014.0 |
| 20260508043346 | 44 | 53 | 0.0 | 0.0 | 0.00 | 0.00 | 0.00 | 79 | 1014.0 |
| 20260508042827 | 44 | 53 | 0.0 | 0.0 | 0.00 | 0.00 | 0.00 | 79 | 1014.0 |
| 20260508042335 | 44 | 53 | 0.0 | 0.0 | 0.00 | 0.00 | 0.00 | 79 | 1014.0 |
| 20260508041819 | 44 | 53 | 0.0 | 0.0 | 0.00 | 0.00 | 0.00 | 79 | 1014.0 |
| 20260508041319 | 44 | 53 | 0.0 | 0.0 | 0.00 | 0.00 | 0.00 | 79 | 1013.8 |
| 20260508040823 | 44 | 53 | 0.0 | 0.0 | 0.00 | 0.00 | 0.00 | 81 | 1013.8 |
| 20260508040332 | 44 | 53 | 0.0 | 0.0 | 0.00 | 0.00 | 0.00 | 82 | 1013.8 |
| 20260508035818 | 44 | 53 | 0.0 | 0.0 | 0.00 | 0.00 | 0.00 | 82 | 1014.0 |
| 20260508035344 | 44 | 53 | 0.0 | 0.0 | 0.00 | 0.00 | 0.00 | 81 | 1014.0 |
| 20260508034848 | 44 | 53 | 0.0 | 0.0 | 0.00 | 0.00 | 0.00 | 82 | 1014.0 |
| 20260508034335 | 44 | 53 | 0.0 | 0.0 | 0.00 | 0.00 | 0.00 | 82 | 1013.7 |
| 20260508033900 | 44 | 53 | 0.0 | 0.0 | 0.00 | 0.00 | 0.00 | 81 | 1013.7 |
| 20260508033323 | 44 | 53 | 0.0 | 0.0 | 0.00 | 0.00 | 0.00 | 80 | 1013.7 |
| 20260508032826 | 44 | 53 | 0.0 | 0.0 | 0.00 | 0.00 | 0.00 | 78 | 1013.8 |
| 20260508032335 | 44 | 53 | 0.0 | 0.0 | 0.00 | 0.00 | 0.00 | 79 | 1013.8 |
| 20260508031817 | 44 | 53 | 0.0 | 0.0 | 0.00 | 0.00 | 0.00 | 81 | 1013.8 |
| 20260508031319 | 44 | 53 | 0.0 | 0.0 | 0.00 | 0.00 | 0.00 | 78 | 1013.8 |
| 20260508030826 | 44 | 53 | 0.0 | 0.0 | 0.00 | 0.00 | 0.00 | 78 | 1013.8 |
| 20260508030316 | 44 | 53 | 0.0 | 0.0 | 0.00 | 0.00 | 0.00 | 79 | 1013.8 |
| 20260508025823 | 45 | 53 | 0.0 | 0.0 | 0.00 | 0.00 | 0.00 | 83 | 1013.8 |
| 20260508025329 | 45 | 53 | 0.0 | 0.0 | 0.00 | 0.00 | 0.00 | 81 | 1013.8 |
| 20260508024834 | 45 | 53 | 0.0 | 0.0 | 0.00 | 0.00 | 0.00 | 76 | 1013.8 |
| 20260508024340 | 45 | 53 | 0.0 | 0.0 | 0.00 | 0.00 | 0.00 | 76 | 1014.0 |
| 20260508023825 | 45 | 53 | 0.0 | 0.0 | 0.00 | 0.00 | 0.00 | 76 | 1014.0 |
| 20260508023331 | 45 | 53 | 0.0 | 0.0 | 0.00 | 0.00 | 0.00 | 76 | 1014.0 |
| 20260508022835 | 45 | 53 | 0.0 | 0.0 | 0.00 | 0.00 | 0.00 | 81 | 1013.8 |
| 20260508022318 | 45 | 53 | 0.0 | 0.0 | 0.00 | 0.00 | 0.00 | 78 | 1013.8 |
| 20260508021824 | 45 | 53 | 0.0 | 0.0 | 0.00 | 0.00 | 0.00 | 79 | 1013.8 |
| 20260508021346 | 45 | 53 | 0.0 | 0.0 | 0.00 | 0.00 | 0.00 | 78 | 1013.8 |
| 20260508020831 | 46 | 53 | 0.0 | 0.0 | 0.00 | 0.00 | 0.00 | 78 | 1013.8 |
| 20260508020321 | 46 | 53 | 0.0 | 0.0 | 0.00 | 0.00 | 0.00 | 75 | 1013.8 |
| 20260508015824 | 46 | 53 | 0.0 | 0.0 | 0.00 | 0.00 | 0.00 | 74 | 1013.8 |
| 20260508015332 | 46 | 53 | 0.0 | 0.0 | 0.00 | 0.00 | 0.00 | 75 | 1013.8 |
| 20260508014817 | 46 | 53 | 0.0 | 0.0 | 0.00 | 0.00 | 0.00 | 74 | 1013.8 |
| 20260508014323 | 46 | 53 | 0.0 | 0.0 | 0.00 | 0.00 | 0.00 | 73 | 1013.7 |
| 20260508013848 | 46 | 53 | 0.0 | 0.0 | 0.00 | 0.00 | 0.00 | 72 | 1013.7 |
| 20260508013333 | 47 | 53 | 0.0 | 0.0 | 0.00 | 0.00 | 0.00 | 71 | 1013.7 |
| 20260508012835 | 47 | 53 | 0.0 | 0.0 | 0.00 | 0.00 | 0.00 | 71 | 1013.5 |
| 20260508012318 | 47 | 53 | 0.0 | 0.0 | 0.00 | 0.00 | 0.00 | 70 | 1013.5 |
| 20260508011827 | 48 | 53 | 0.0 | 0.0 | 0.00 | 0.00 | 0.00 | 70 | 1013.5 |
| 20260508011329 | 48 | 53 | 0.0 | 0.0 | 0.00 | 0.00 | 0.00 | 71 | 1013.4 |
| 20260508010854 | 48 | 53 | 0.0 | 0.0 | 0.00 | 0.00 | 0.00 | 65 | 1013.4 |
| 20260508010323 | 49 | 53 | 0.0 | 0.0 | 0.00 | 0.00 | 0.00 | 67 | 1013.4 |
| 20260508005829 | 49 | 53 | 0.0 | 0.0 | 0.00 | 0.00 | 0.00 | 68 | 1013.4 |
| 20260508005337 | 49 | 53 | 0.0 | 0.0 | 0.00 | 0.00 | 0.00 | 68 | 1013.4 |
| 20260508004822 | 49 | 53 | 0.0 | 0.0 | 0.00 | 0.00 | 0.00 | 65 | 1013.4 |
| 20260508004347 | 50 | 53 | 0.0 | 0.0 | 0.00 | 0.00 | 0.00 | 61 | 1013.2 |
| 20260508003830 | 50 | 53 | 0.0 | 0.0 | 0.00 | 0.00 | 0.00 | 61 | 1013.2 |
| 20260508003318 | 51 | 53 | 0.0 | 0.0 | 0.00 | 0.00 | 0.00 | 61 | 1013.2 |
| 20260508002849 | 51 | 53 | 0.0 | 0.0 | 0.00 | 0.00 | 0.00 | 57 | 1013.1 |
| 20260508002333 | 52 | 53 | 0.0 | 0.0 | 0.00 | 0.00 | 0.00 | 57 | 1013.1 |
| 20260508001816 | 52 | 53 | 0.0 | 0.0 | 0.00 | 0.00 | 0.00 | 56 | 1013.1 |
| 20260508001322 | 52 | 53 | 0.0 | 0.0 | 0.00 | 0.00 | 0.00 | 56 | 1013.0 |
| 20260508000847 | 53 | 53 | 0.0 | 0.0 | 0.00 | 0.00 | 0.00 | 57 | 1013.0 |
| 20260508000315 | 53 | 53 | 0.0 | 0.0 | 0.00 | 0.00 | 0.00 | 53 | 1013.0 |
| 20260507235823 | 53 | 53 | 0.0 | 1.7 | 0.00 | 0.00 | 0.00 | 52 | 1013.0 |
| 20260507235328 | 54 | 53 | 0.0 | 1.7 | 0.00 | 0.00 | 0.00 | 49 | 1013.0 |
| 20260507234834 | 54 | 53 | 0.0 | 1.7 | 0.00 | 0.00 | 0.00 | 48 | 1013.0 |
| 20260507234321 | 54 | 53 | 0.0 | 1.7 | 0.00 | 0.00 | 0.00 | 48 | 1012.9 |
| 20260507233829 | 54 | 52 | 0.0 | 0.9 | 0.00 | 0.00 | 0.00 | 48 | 1012.9 |
| 20260507233318 | 54 | 51 | 0.0 | 0.0 | 0.00 | 0.00 | 0.00 | 46 | 1012.9 |
| 20260507232818 | 54 | 51 | 0.0 | 2.6 | 0.00 | 0.00 | 0.00 | 49 | 1012.9 |
| 20260507232326 | 54 | 51 | 0.0 | 3.5 | 0.00 | 0.00 | 0.00 | 48 | 1012.9 |
| 20260507231830 | 54 | 52 | 0.0 | 3.5 | 0.00 | 0.00 | 0.00 | 49 | 1012.9 |
| 20260507231336 | 55 | 53 | 0.9 | 3.5 | 0.00 | 0.00 | 0.00 | 48 | 1012.9 |
| 20260507230821 | 55 | 95 | 0.0 | 3.5 | 0.00 | 0.00 | 0.00 | 49 | 1012.9 |
| 20260507230329 | 55 | 157 | 0.0 | 3.5 | 0.00 | 0.00 | 0.00 | 49 | 1012.9 |
| 20260507225832 | 55 | 64 | 0.0 | 4.3 | 0.00 | 0.00 | 0.00 | 46 | 1013.0 |
| 20260507225341 | 55 | 76 | 0.9 | 4.3 | 0.00 | 0.00 | 0.00 | 44 | 1013.0 |
| 20260507224829 | 56 | 34 | 0.9 | 6.1 | 0.00 | 0.00 | 0.00 | 45 | 1013.0 |
| 20260507224333 | 56 | 40 | 0.0 | 6.1 | 0.00 | 0.00 | 0.00 | 47 | 1013.1 |
| 20260507223859 | 56 | 26 | 0.0 | 3.5 | 0.00 | 0.00 | 0.00 | 46 | 1013.1 |
| 20260507223322 | 56 | 26 | 0.9 | 3.5 | 0.00 | 0.00 | 0.00 | 41 | 1013.1 |
| 20260507222846 | 57 | 89 | 0.0 | 5.2 | 0.00 | 0.00 | 0.00 | 43 | 1013.0 |
| 20260507222330 | 57 | 89 | 0.0 | 5.2 | 0.00 | 0.00 | 0.00 | 44 | 1013.0 |
| 20260507221819 | 57 | 119 | 0.0 | 4.3 | 0.00 | 0.00 | 0.00 | 43 | 1013.0 |
| 20260507221344 | 57 | 54 | 0.0 | 6.1 | 0.00 | 0.00 | 0.00 | 48 | 1012.9 |
| 20260507220855 | 58 | 53 | 0.9 | 6.1 | 0.00 | 0.00 | 0.00 | 41 | 1012.9 |
| 20260507220318 | 58 | 36 | 0.9 | 6.1 | 0.00 | 0.00 | 0.00 | 42 | 1012.9 |
| 20260507215818 | 59 | 48 | 0.9 | 3.5 | 0.00 | 0.00 | 0.00 | 42 | 1012.9 |
| 20260507215330 | 58 | 223 | 0.9 | 5.2 | 0.00 | 0.00 | 0.00 | 44 | 1012.9 |
| 20260507214818 | 58 | 222 | 0.9 | 5.2 | 0.00 | 0.00 | 0.00 | 43 | 1012.9 |
| 20260507214321 | 58 | 107 | 0.9 | 3.5 | 0.00 | 0.00 | 0.00 | 43 | 1012.9 |
| 20260507213846 | 58 | 312 | 0.9 | 4.3 | 0.00 | 0.00 | 0.00 | 45 | 1012.9 |
| 20260507213330 | 58 | 29 | 0.0 | 4.3 | 0.00 | 0.00 | 0.00 | 47 | 1012.9 |
| 20260507212855 | 59 | 9 | 0.0 | 4.3 | 0.00 | 0.00 | 0.00 | 45 | 1012.8 |
| 20260507212321 | 58 | 43 | 1.7 | 5.2 | 0.00 | 0.00 | 0.00 | 43 | 1012.8 |
| 20260507211826 | 58 | 41 | 0.9 | 5.2 | 0.00 | 0.00 | 0.00 | 43 | 1012.8 |
| 20260507211327 | 58 | 42 | 0.9 | 6.1 | 0.00 | 0.00 | 0.00 | 45 | 1012.5 |
| 20260507210833 | 58 | 69 | 0.9 | 6.1 | 0.00 | 0.00 | 0.00 | 43 | 1012.5 |
| 20260507210321 | 58 | 15 | 1.7 | 7.8 | 0.00 | 0.00 | 0.00 | 44 | 1012.5 |
| 20260507205840 | 59 | 53 | 1.7 | 7.8 | 0.00 | 0.00 | 0.00 | 41 | 1012.5 |
| 20260507205324 | 59 | 49 | 0.9 | 7.8 | 0.00 | 0.00 | 0.00 | 45 | 1012.5 |
| 20260507204813 | 58 | 74 | 0.9 | 6.1 | 0.00 | 0.00 | 0.00 | 42 | 1012.5 |
| 20260507204319 | 58 | 70 | 1.7 | 6.1 | 0.00 | 0.00 | 0.00 | 43 | 1012.4 |
| 20260507203825 | 59 | 28 | 1.7 | 7.0 | 0.00 | 0.00 | 0.00 | 42 | 1012.4 |
| 20260507203350 | 59 | 203 | 0.0 | 4.3 | 0.00 | 0.00 | 0.00 | 46 | 1012.4 |
| 20260507202833 | 59 | 22 | 0.9 | 6.1 | 0.00 | 0.00 | 0.00 | 45 | 1012.5 |
| 20260507202338 | 58 | 22 | 0.9 | 7.0 | 0.00 | 0.00 | 0.00 | 41 | 1012.5 |
| 20260507201823 | 58 | 63 | 0.9 | 7.0 | 0.00 | 0.00 | 0.00 | 44 | 1012.5 |
| 20260507201326 | 58 | 122 | 1.7 | 7.8 | 0.00 | 0.00 | 0.00 | 44 | 1012.4 |
| 20260507200832 | 59 | 30 | 1.7 | 7.8 | 0.00 | 0.00 | 0.00 | 45 | 1012.4 |
| 20260507200315 | 59 | 109 | 0.9 | 5.2 | 0.00 | 0.00 | 0.00 | 51 | 1012.4 |
| 20260507195816 | 58 | 291 | 0.0 | 5.2 | 0.00 | 0.00 | 0.00 | 51 | 1012.5 |
| 20260507195324 | 59 | 294 | 0.9 | 6.1 | 0.00 | 0.00 | 0.00 | 47 | 1012.5 |
| 20260507194815 | 59 | 19 | 0.9 | 7.0 | 0.00 | 0.00 | 0.00 | 46 | 1012.5 |
| 20260507194320 | 59 | 46 | 0.9 | 7.0 | 0.00 | 0.00 | 0.00 | 47 | 1012.5 |
| 20260507193825 | 59 | 26 | 1.7 | 7.8 | 0.00 | 0.00 | 0.00 | 50 | 1012.5 |
| 20260507193350 | 59 | 327 | 0.9 | 6.1 | 0.00 | 0.00 | 0.00 | 49 | 1012.5 |
| 20260507192833 | 58 | 298 | 0.9 | 6.1 | 0.00 | 0.00 | 0.00 | 49 | 1012.8 |
| 20260507192319 | 58 | 76 | 2.6 | 6.1 | 0.00 | 0.00 | 0.00 | 47 | 1012.8 |
| 20260507191824 | 58 | 278 | 0.9 | 6.1 | 0.00 | 0.00 | 0.00 | 48 | 1012.8 |
| 20260507191320 | 58 | 66 | 2.6 | 6.1 | 0.00 | 0.00 | 0.00 | 49 | 1012.6 |
| 20260507190826 | 58 | 355 | 0.9 | 5.2 | 0.00 | 0.00 | 0.00 | 48 | 1012.6 |
| 20260507190351 | 59 | 108 | 0.0 | 6.1 | 0.00 | 0.00 | 0.00 | 53 | 1012.6 |
| 20260507185812 | 58 | 158 | 0.0 | 6.1 | 0.00 | 0.00 | 0.00 | 49 | 1012.7 |
| 20260507185324 | 59 | 155 | 1.7 | 6.1 | 0.00 | 0.00 | 0.00 | 46 | 1012.7 |
| 20260507184815 | 59 | 171 | 0.9 | 4.3 | 0.00 | 0.00 | 0.00 | 48 | 1012.7 |
| 20260507184320 | 58 | 178 | 0.9 | 5.2 | 0.00 | 0.00 | 0.00 | 48 | 1012.7 |
| 20260507183825 | 58 | 346 | 1.7 | 8.7 | 0.00 | 0.00 | 0.00 | 44 | 1012.7 |
| 20260507183329 | 58 | 171 | 2.6 | 8.7 | 0.00 | 0.00 | 0.00 | 49 | 1012.7 |
| 20260507182856 | 57 | 95 | 0.0 | 7.0 | 0.00 | 0.00 | 0.00 | 46 | 1012.6 |
| 20260507182318 | 57 | 159 | 0.9 | 7.0 | 0.00 | 0.00 | 0.00 | 46 | 1012.6 |
| 20260507181846 | 58 | 96 | 1.7 | 7.0 | 0.00 | 0.00 | 0.00 | 44 | 1012.6 |
| 20260507181326 | 58 | 9 | 1.7 | 6.1 | 0.00 | 0.00 | 0.00 | 47 | 1012.8 |
| 20260507180836 | 59 | 259 | 0.9 | 6.1 | 0.00 | 0.00 | 0.00 | 44 | 1012.8 |
| 20260507180319 | 58 | 71 | 0.9 | 6.1 | 0.00 | 0.00 | 0.00 | 52 | 1012.8 |
| 20260507175824 | 57 | 161 | 0.0 | 5.2 | 0.00 | 0.00 | 0.00 | 49 | 1012.9 |
| 20260507175333 | 57 | 155 | 1.7 | 5.2 | 0.00 | 0.00 | 0.00 | 44 | 1012.9 |
| 20260507174821 | 57 | 252 | 0.9 | 6.1 | 0.00 | 0.00 | 0.00 | 47 | 1012.9 |
| 20260507174324 | 57 | 123 | 1.7 | 6.1 | 0.00 | 0.00 | 0.00 | 44 | 1013.1 |
| 20260507173832 | 58 | 121 | 0.9 | 6.1 | 0.00 | 0.00 | 0.00 | 49 | 1013.1 |
| 20260507173317 | 57 | 173 | 0.9 | 3.5 | 0.00 | 0.00 | 0.00 | 43 | 1013.1 |
| 20260507172841 | 57 | 175 | 0.9 | 5.2 | 0.00 | 0.00 | 0.00 | 46 | 1013.3 |
| 20260507172325 | 57 | 119 | 1.7 | 5.2 | 0.00 | 0.00 | 0.00 | 43 | 1013.3 |
| 20260507171832 | 57 | 126 | 0.9 | 7.8 | 0.00 | 0.00 | 0.00 | 44 | 1013.3 |
| 20260507171335 | 57 | 132 | 2.6 | 7.8 | 0.00 | 0.00 | 0.00 | 44 | 1013.4 |
| 20260507170821 | 57 | 35 | 0.9 | 4.3 | 0.00 | 0.00 | 0.00 | 43 | 1013.4 |
| 20260507170329 | 57 | 73 | 0.9 | 4.3 | 0.00 | 0.00 | 0.00 | 42 | 1013.4 |
| 20260507165831 | 56 | 173 | 1.7 | 5.2 | 0.00 | 0.00 | 0.00 | 45 | 1013.4 |
| 20260507165321 | 56 | 84 | 1.7 | 6.1 | 0.00 | 0.00 | 0.00 | 44 | 1013.4 |
| 20260507164842 | 56 | 173 | 1.7 | 6.1 | 0.00 | 0.00 | 0.00 | 46 | 1013.4 |
| 20260507164324 | 56 | 146 | 3.5 | 6.1 | 0.00 | 0.00 | 0.00 | 42 | 1013.4 |
| 20260507163832 | 56 | 171 | 0.9 | 6.1 | 0.00 | 0.00 | 0.00 | 45 | 1013.4 |
| 20260507163322 | 57 | 27 | 1.7 | 4.3 | 0.00 | 0.00 | 0.00 | 47 | 1013.4 |
| 20260507162825 | 56 | 85 | 0.9 | 3.5 | 0.00 | 0.00 | 0.00 | 45 | 1013.4 |
| 20260507162331 | 56 | 120 | 0.9 | 4.3 | 0.00 | 0.00 | 0.00 | 49 | 1013.4 |
| 20260507161816 | 55 | 132 | 0.9 | 4.3 | 0.00 | 0.00 | 0.00 | 50 | 1013.4 |
| 20260507161321 | 55 | 109 | 0.9 | 4.3 | 0.00 | 0.00 | 0.00 | 47 | 1013.4 |
| 20260507160829 | 55 | 184 | 0.0 | 4.3 | 0.00 | 0.00 | 0.00 | 50 | 1013.4 |
| 20260507160323 | 55 | 88 | 0.0 | 4.3 | 0.00 | 0.00 | 0.00 | 48 | 1013.4 |
| 20260507155827 | 54 | 57 | 0.0 | 3.5 | 0.00 | 0.00 | 0.00 | 52 | 1013.4 |
| 20260507155331 | 54 | 343 | 0.0 | 6.1 | 0.00 | 0.00 | 0.00 | 52 | 1013.4 |
| 20260507154816 | 53 | 27 | 0.9 | 6.1 | 0.00 | 0.00 | 0.00 | 53 | 1013.4 |
| 20260507154320 | 53 | 240 | 0.9 | 6.1 | 0.00 | 0.00 | 0.00 | 50 | 1013.4 |
| 20260507153825 | 53 | 128 | 1.7 | 4.3 | 0.00 | 0.00 | 0.00 | 50 | 1013.4 |
| 20260507153330 | 53 | 63 | 0.0 | 4.3 | 0.00 | 0.00 | 0.00 | 53 | 1013.4 |
| 20260507152836 | 54 | 157 | 0.9 | 4.3 | 0.00 | 0.00 | 0.00 | 58 | 1013.3 |
| 20260507152341 | 53 | 32 | 2.6 | 4.3 | 0.00 | 0.00 | 0.00 | 53 | 1013.3 |
| 20260507151853 | 53 | 153 | 0.0 | 3.5 | 0.00 | 0.00 | 0.00 | 57 | 1013.3 |
| 20260507151334 | 53 | 38 | 0.0 | 5.2 | 0.00 | 0.00 | 0.00 | 55 | 1013.4 |
| 20260507150822 | 52 | 113 | 0.0 | 5.2 | 0.00 | 0.00 | 0.00 | 53 | 1013.4 |
| 20260507150331 | 52 | 38 | 1.7 | 5.2 | 0.00 | 0.00 | 0.00 | 52 | 1013.4 |
| 20260507145854 | 52 | 148 | 0.0 | 5.2 | 0.00 | 0.00 | 0.00 | 54 | 1013.5 |
| 20260507145341 | 52 | 150 | 0.9 | 5.2 | 0.00 | 0.00 | 0.00 | 54 | 1013.5 |
| 20260507144825 | 52 | 115 | 0.0 | 5.2 | 0.00 | 0.00 | 0.00 | 55 | 1013.5 |
| 20260507144346 | 52 | 132 | 0.0 | 3.5 | 0.00 | 0.00 | 0.00 | 56 | 1013.5 |
| 20260507143833 | 52 | 194 | 0.9 | 3.5 | 0.00 | 0.00 | 0.00 | 57 | 1013.5 |
| 20260507143338 | 51 | 45 | 0.9 | 3.5 | 0.00 | 0.00 | 0.00 | 63 | 1013.5 |
| 20260507142824 | 51 | 35 | 0.0 | 1.7 | 0.00 | 0.00 | 0.00 | 61 | 1013.5 |
| 20260507142348 | 51 | 36 | 0.0 | 1.7 | 0.00 | 0.00 | 0.00 | 64 | 1013.5 |
| 20260507141853 | 51 | 37 | 0.0 | 0.9 | 0.00 | 0.00 | 0.00 | 62 | 1013.5 |
| 20260507141354 | 51 | 38 | 0.0 | 2.6 | 0.00 | 0.00 | 0.00 | 64 | 1013.8 |
| 20260507140815 | 50 | 38 | 0.0 | 2.6 | 0.00 | 0.00 | 0.00 | 65 | 1013.8 |
| 20260507140343 | 50 | 36 | 0.0 | 2.6 | 0.00 | 0.00 | 0.00 | 66 | 1013.8 |
| 20260507135848 | 50 | 42 | 0.0 | 3.5 | 0.00 | 0.00 | 0.00 | 64 | 1013.9 |
| 20260507135332 | 50 | 42 | 0.0 | 3.5 | 0.00 | 0.00 | 0.00 | 65 | 1013.9 |
| 20260507134819 | 49 | 24 | 0.0 | 3.5 | 0.00 | 0.00 | 0.00 | 69 | 1013.9 |
| 20260507134321 | 49 | 24 | 0.9 | 3.5 | 0.00 | 0.00 | 0.00 | 68 | 1014.0 |
| 20260507133829 | 48 | 157 | 0.0 | 4.3 | 0.00 | 0.00 | 0.00 | 66 | 1014.0 |
| 20260507133339 | 48 | 112 | 0.9 | 4.3 | 0.00 | 0.00 | 0.00 | 69 | 1014.0 |
| 20260507132823 | 48 | 26 | 0.9 | 4.3 | 0.00 | 0.00 | 0.00 | 69 | 1014.1 |
| 20260507132332 | 48 | 154 | 0.0 | 2.6 | 0.00 | 0.00 | 0.00 | 71 | 1014.1 |
| 20260507131841 | 47 | 157 | 0.0 | 1.7 | 0.00 | 0.00 | 0.00 | 72 | 1014.1 |
| 20260507131326 | 47 | 67 | 0.0 | 2.6 | 0.00 | 0.00 | 0.00 | 75 | 1014.0 |
| 20260507130831 | 46 | 74 | 0.0 | 3.5 | 0.00 | 0.00 | 0.00 | 72 | 1014.0 |
| 20260507130315 | 46 | 84 | 0.9 | 3.5 | 0.00 | 0.00 | 0.00 | 74 | 1014.0 |
| 20260507125816 | 46 | 24 | 0.0 | 3.5 | 0.00 | 0.00 | 0.00 | 75 | 1014.0 |
| 20260507125324 | 45 | 43 | 0.9 | 3.5 | 0.00 | 0.00 | 0.00 | 75 | 1014.0 |
| 20260507124812 | 45 | 34 | 0.0 | 2.6 | 0.00 | 0.00 | 0.00 | 80 | 1014.0 |
| 20260507124358 | 45 | 31 | 0.0 | 1.7 | 0.00 | 0.00 | 0.00 | 81 | 1014.0 |
| 20260507123822 | 44 | 30 | 0.0 | 1.7 | 0.00 | 0.00 | 0.00 | 83 | 1014.0 |
| 20260507123332 | 44 | 25 | 0.0 | 1.7 | 0.00 | 0.00 | 0.00 | 87 | 1014.0 |
| 20260507122837 | 44 | 25 | 0.0 | 0.0 | 0.00 | 0.00 | 0.00 | 88 | 1014.0 |
| 20260507122322 | 43 | 25 | 0.0 | 0.0 | 0.00 | 0.00 | 0.00 | 89 | 1014.0 |
| 20260507121848 | 43 | 25 | 0.0 | 0.0 | 0.00 | 0.00 | 0.00 | 94 | 1014.0 |
| 20260507121330 | 42 | 25 | 0.0 | 0.0 | 0.00 | 0.00 | 0.00 | 95 | 1014.0 |
| 20260507120836 | 42 | 24 | 0.0 | 2.6 | 0.00 | 0.00 | 0.00 | 97 | 1014.0 |
| 20260507120319 | 41 | 16 | 0.0 | 2.6 | 0.00 | 0.00 | 0.00 | 99 | 1014.0 |
| 20260507115821 | 41 | 16 | 0.0 | 0.0 | 0.00 | 0.00 | 0.00 | 100 | 1014.0 |